owner,sensor,date,latitude,longitude,vertical_datum,sea_water_practical_salinity,qcFlag 
SCCF RECON,ioos:station:SCCF:56:1,2019-10-01T04:00:00Z,26.4645,-82.1044,1.917,29.79,11111222 
SCCF RECON,ioos:station:SCCF:56:1,2019-10-01T05:00:00Z,26.4645,-82.1044,2.04,29.86,11111222 
SCCF RECON,ioos:station:SCCF:56:1,2019-10-01T06:00:00Z,26.4645,-82.1044,2.109,29.92,11111222 
SCCF RECON,ioos:station:SCCF:56:1,2019-10-01T07:00:00Z,26.4645,-82.1044,2.146,30.04,11111222 
SCCF RECON,ioos:station:SCCF:56:1,2019-10-01T08:00:00Z,26.4645,-82.1044,2.081,29.86,11111222 
SCCF RECON,ioos:station:SCCF:56:1,2019-10-01T09:00:00Z,26.4645,-82.1044,1.982,29.93,11111222 
SCCF RECON,ioos:station:SCCF:56:1,2019-10-01T10:00:00Z,26.4645,-82.1044,1.867,29.86,11111222 
SCCF RECON,ioos:station:SCCF:56:1,2019-10-01T11:00:00Z,26.4645,-82.1044,1.737,29.82,11111222 
SCCF RECON,ioos:station:SCCF:56:1,2019-10-01T12:00:00Z,26.4645,-82.1044,1.603,29.75,11111222 
SCCF RECON,ioos:station:SCCF:56:1,2019-10-01T13:00:00Z,26.4645,-82.1044,1.482,29.72,11111222 
SCCF RECON,ioos:station:SCCF:56:1,2019-10-01T14:00:00Z,26.4645,-82.1044,1.409,29.69,11111222 
SCCF RECON,ioos:station:SCCF:56:1,2019-10-01T15:00:00Z,26.4645,-82.1044,1.429,29.7,11111222 
SCCF RECON,ioos:station:SCCF:56:1,2019-10-01T16:00:00Z,26.4645,-82.1044,1.601,29.78,11111222 
SCCF RECON,ioos:station:SCCF:56:1,2019-10-01T17:00:00Z,26.4645,-82.1044,1.786,29.96,11111222 
SCCF RECON,ioos:station:SCCF:56:1,2019-10-01T18:00:00Z,26.4645,-82.1044,1.922,30.07,11111222 
SCCF RECON,ioos:station:SCCF:56:1,2019-10-01T19:00:00Z,26.4645,-82.1044,2.028,30.03,11111222 
SCCF RECON,ioos:station:SCCF:56:1,2019-10-01T20:00:00Z,26.4645,-82.1044,2.104,29.98,11111222 
SCCF RECON,ioos:station:SCCF:56:1,2019-10-01T21:00:00Z,26.4645,-82.1044,2.081,30.06,11111222 
SCCF RECON,ioos:station:SCCF:56:1,2019-10-01T22:00:00Z,26.4645,-82.1044,2.009,30.04,11111222 
SCCF RECON,ioos:station:SCCF:56:1,2019-10-01T23:00:00Z,26.4645,-82.1044,1.942,30.05,11111222 
SCCF RECON,ioos:station:SCCF:56:1,2019-10-02T04:00:00Z,26.4645,-82.1044,1.897,30.07,11111222 
SCCF RECON,ioos:station:SCCF:56:1,2019-10-02T05:00:00Z,26.4645,-82.1044,2.047,30.18,11111222 
SCCF RECON,ioos:station:SCCF:56:1,2019-10-02T06:00:00Z,26.4645,-82.1044,2.138,30.51,11111222 
SCCF RECON,ioos:station:SCCF:56:1,2019-10-02T07:00:00Z,26.4645,-82.1044,2.168,30.81,11111222 
SCCF RECON,ioos:station:SCCF:56:1,2019-10-02T08:00:00Z,26.4645,-82.1044,2.166,30.82,11111222 
SCCF RECON,ioos:station:SCCF:56:1,2019-10-02T09:00:00Z,26.4645,-82.1044,2.125,30.78,11111222 
SCCF RECON,ioos:station:SCCF:56:1,2019-10-02T10:00:00Z,26.4645,-82.1044,2.021,30.43,11111222 
SCCF RECON,ioos:station:SCCF:56:1,2019-10-02T11:00:00Z,26.4645,-82.1044,1.877,30.26,11111222 
SCCF RECON,ioos:station:SCCF:56:1,2019-10-02T12:00:00Z,26.4645,-82.1044,1.729,30.16,11111222 
SCCF RECON,ioos:station:SCCF:56:1,2019-10-02T13:00:00Z,26.4645,-82.1044,1.615,30.1,11111222 
SCCF RECON,ioos:station:SCCF:56:1,2019-10-02T14:00:00Z,26.4645,-82.1044,1.512,30.08,11111222 
SCCF RECON,ioos:station:SCCF:56:1,2019-10-02T15:00:00Z,26.4645,-82.1044,1.446,30.07,11111222 
SCCF RECON,ioos:station:SCCF:56:1,2019-10-02T16:00:00Z,26.4645,-82.1044,1.486,30.08,11111222 
SCCF RECON,ioos:station:SCCF:56:1,2019-10-02T17:00:00Z,26.4645,-82.1044,1.648,30.15,11111222 
SCCF RECON,ioos:station:SCCF:56:1,2019-10-02T18:00:00Z,26.4645,-82.1044,1.797,30.27,11111222 
SCCF RECON,ioos:station:SCCF:56:1,2019-10-02T19:00:00Z,26.4645,-82.1044,1.883,30.56,11111222 
SCCF RECON,ioos:station:SCCF:56:1,2019-10-02T20:00:00Z,26.4645,-82.1044,1.946,30.73,11111222 
SCCF RECON,ioos:station:SCCF:56:1,2019-10-02T21:00:00Z,26.4645,-82.1044,1.996,30.65,11111222 
SCCF RECON,ioos:station:SCCF:56:1,2019-10-02T22:00:00Z,26.4645,-82.1044,1.997,30.5,11111222 
SCCF RECON,ioos:station:SCCF:56:1,2019-10-02T23:00:00Z,26.4645,-82.1044,1.967,30.5,11111222 
SCCF RECON,ioos:station:SCCF:56:1,2019-10-03T04:00:00Z,26.4645,-82.1044,1.903,30.73,11111222 
SCCF RECON,ioos:station:SCCF:56:1,2019-10-03T05:00:00Z,26.4645,-82.1044,2.01,30.61,11111222 
SCCF RECON,ioos:station:SCCF:56:1,2019-10-03T06:00:00Z,26.4645,-82.1044,2.103,30.77,11111222 
SCCF RECON,ioos:station:SCCF:56:1,2019-10-03T07:00:00Z,26.4645,-82.1044,2.169,31.22,11111222 
SCCF RECON,ioos:station:SCCF:56:1,2019-10-03T08:00:00Z,26.4645,-82.1044,2.198,31.12,11111222 
SCCF RECON,ioos:station:SCCF:56:1,2019-10-03T09:00:00Z,26.4645,-82.1044,2.217,31.09,11111222 
SCCF RECON,ioos:station:SCCF:56:1,2019-10-03T10:00:00Z,26.4645,-82.1044,2.185,31.29,11111222 
SCCF RECON,ioos:station:SCCF:56:1,2019-10-03T11:00:00Z,26.4645,-82.1044,2.081,30.96,11111222 
SCCF RECON,ioos:station:SCCF:56:1,2019-10-03T12:00:00Z,26.4645,-82.1044,1.958,30.78,11111222 
SCCF RECON,ioos:station:SCCF:56:1,2019-10-03T13:00:00Z,26.4645,-82.1044,1.832,30.66,11111222 
SCCF RECON,ioos:station:SCCF:56:1,2019-10-03T14:00:00Z,26.4645,-82.1044,1.709,30.57,11111222 
SCCF RECON,ioos:station:SCCF:56:1,2019-10-03T15:00:00Z,26.4645,-82.1044,1.605,30.51,11111222 
SCCF RECON,ioos:station:SCCF:56:1,2019-10-03T16:00:00Z,26.4645,-82.1044,1.538,30.48,11111222 
SCCF RECON,ioos:station:SCCF:56:1,2019-10-03T17:00:00Z,26.4645,-82.1044,1.586,30.49,11111222 
SCCF RECON,ioos:station:SCCF:56:1,2019-10-03T18:00:00Z,26.4645,-82.1044,1.737,30.77,11111222 
SCCF RECON,ioos:station:SCCF:56:1,2019-10-03T19:00:00Z,26.4645,-82.1044,1.855,30.93,11111222 
SCCF RECON,ioos:station:SCCF:56:1,2019-10-03T20:00:00Z,26.4645,-82.1044,1.932,30.94,11111222 
SCCF RECON,ioos:station:SCCF:56:1,2019-10-03T21:00:00Z,26.4645,-82.1044,1.979,30.92,11111222 
SCCF RECON,ioos:station:SCCF:56:1,2019-10-03T22:00:00Z,26.4645,-82.1044,2.01,30.89,11111222 
SCCF RECON,ioos:station:SCCF:56:1,2019-10-03T23:00:00Z,26.4645,-82.1044,2.027,30.9,11111222 
SCCF RECON,ioos:station:SCCF:56:1,2019-10-04T04:00:00Z,26.4645,-82.1044,1.947,30.84,11111222 
SCCF RECON,ioos:station:SCCF:56:1,2019-10-04T05:00:00Z,26.4645,-82.1044,1.957,30.85,11111222 
SCCF RECON,ioos:station:SCCF:56:1,2019-10-04T06:00:00Z,26.4645,-82.1044,2.031,31.1,11111222 
SCCF RECON,ioos:station:SCCF:56:1,2019-10-04T07:00:00Z,26.4645,-82.1044,2.117,31.35,11111222 
SCCF RECON,ioos:station:SCCF:56:1,2019-10-04T08:00:00Z,26.4645,-82.1044,2.181,31.46,11111222 
SCCF RECON,ioos:station:SCCF:56:1,2019-10-04T09:00:00Z,26.4645,-82.1044,2.206,31.47,11111222 
SCCF RECON,ioos:station:SCCF:56:1,2019-10-04T10:00:00Z,26.4645,-82.1044,2.19,31.5,11111222 
SCCF RECON,ioos:station:SCCF:56:1,2019-10-04T11:00:00Z,26.4645,-82.1044,2.152,31.38,11111222 
SCCF RECON,ioos:station:SCCF:56:1,2019-10-04T12:00:00Z,26.4645,-82.1044,2.071,31.2,11111222 
SCCF RECON,ioos:station:SCCF:56:1,2019-10-04T13:00:00Z,26.4645,-82.1044,1.97,31.1,11111222 
SCCF RECON,ioos:station:SCCF:56:1,2019-10-04T14:00:00Z,26.4645,-82.1044,1.84,30.97,11111222 
SCCF RECON,ioos:station:SCCF:56:1,2019-10-04T15:00:00Z,26.4645,-82.1044,1.729,30.9,11111222 
SCCF RECON,ioos:station:SCCF:56:1,2019-10-04T16:00:00Z,26.4645,-82.1044,1.637,30.83,11111222 
SCCF RECON,ioos:station:SCCF:56:1,2019-10-04T17:00:00Z,26.4645,-82.1044,1.586,30.81,11111222 
SCCF RECON,ioos:station:SCCF:56:1,2019-10-04T18:00:00Z,26.4645,-82.1044,1.608,30.81,11111222 
SCCF RECON,ioos:station:SCCF:56:1,2019-10-04T19:00:00Z,26.4645,-82.1044,1.703,30.86,11111222 
SCCF RECON,ioos:station:SCCF:56:1,2019-10-04T20:00:00Z,26.4645,-82.1044,1.818,31.12,11111222 
SCCF RECON,ioos:station:SCCF:56:1,2019-10-04T21:00:00Z,26.4645,-82.1044,1.885,31.27,11111222 
SCCF RECON,ioos:station:SCCF:56:1,2019-10-04T22:00:00Z,26.4645,-82.1044,1.936,31.29,11111222 
SCCF RECON,ioos:station:SCCF:56:1,2019-10-04T23:00:00Z,26.4645,-82.1044,1.965,31.28,11111222 
SCCF RECON,ioos:station:SCCF:56:1,2019-10-05T04:00:00Z,26.4645,-82.1044,1.985,31.16,11111222 
SCCF RECON,ioos:station:SCCF:56:1,2019-10-05T05:00:00Z,26.4645,-82.1044,1.995,31.16,11111222 
SCCF RECON,ioos:station:SCCF:56:1,2019-10-05T06:00:00Z,26.4645,-82.1044,1.997,31.12,11111222 
SCCF RECON,ioos:station:SCCF:56:1,2019-10-05T07:00:00Z,26.4645,-82.1044,2.011,31.19,11111222 
SCCF RECON,ioos:station:SCCF:56:1,2019-10-05T08:00:00Z,26.4645,-82.1044,2.045,31.31,11111222 
SCCF RECON,ioos:station:SCCF:56:1,2019-10-05T09:00:00Z,26.4645,-82.1044,2.098,31.46,11111222 
SCCF RECON,ioos:station:SCCF:56:1,2019-10-05T10:00:00Z,26.4645,-82.1044,2.13,31.46,11111222 
SCCF RECON,ioos:station:SCCF:56:1,2019-10-05T11:00:00Z,26.4645,-82.1044,2.127,31.57,11111222 
SCCF RECON,ioos:station:SCCF:56:1,2019-10-05T12:00:00Z,26.4645,-82.1044,2.096,31.38,11111222 
SCCF RECON,ioos:station:SCCF:56:1,2019-10-05T13:00:00Z,26.4645,-82.1044,2.016,31.37,11111222 
SCCF RECON,ioos:station:SCCF:56:1,2019-10-05T14:00:00Z,26.4645,-82.1044,1.916,31.28,11111222 
SCCF RECON,ioos:station:SCCF:56:1,2019-10-05T15:00:00Z,26.4645,-82.1044,1.822,31.19,11111222 
SCCF RECON,ioos:station:SCCF:56:1,2019-10-05T16:00:00Z,26.4645,-82.1044,1.713,31.12,11111222 
SCCF RECON,ioos:station:SCCF:56:1,2019-10-05T17:00:00Z,26.4645,-82.1044,1.615,31.07,11111222 
SCCF RECON,ioos:station:SCCF:56:1,2019-10-05T18:00:00Z,26.4645,-82.1044,1.558,31.03,11111222 
SCCF RECON,ioos:station:SCCF:56:1,2019-10-05T19:00:00Z,26.4645,-82.1044,1.562,31.03,11111222 
SCCF RECON,ioos:station:SCCF:56:1,2019-10-05T20:00:00Z,26.4645,-82.1044,1.685,31.08,11111222 
SCCF RECON,ioos:station:SCCF:56:1,2019-10-05T21:00:00Z,26.4645,-82.1044,1.792,31.29,11111222 
SCCF RECON,ioos:station:SCCF:56:1,2019-10-05T22:00:00Z,26.4645,-82.1044,1.863,31.38,11111222 
SCCF RECON,ioos:station:SCCF:56:1,2019-10-05T23:00:00Z,26.4645,-82.1044,1.922,31.38,11111222 
SCCF RECON,ioos:station:SCCF:56:1,2019-10-06T04:00:00Z,26.4645,-82.1044,1.967,31.43,11111222 
SCCF RECON,ioos:station:SCCF:56:1,2019-10-06T05:00:00Z,26.4645,-82.1044,1.949,31.41,11111222 
SCCF RECON,ioos:station:SCCF:56:1,2019-10-06T06:00:00Z,26.4645,-82.1044,1.94,31.42,11111222 
SCCF RECON,ioos:station:SCCF:56:1,2019-10-06T07:00:00Z,26.4645,-82.1044,1.907,31.4,11111222 
SCCF RECON,ioos:station:SCCF:56:1,2019-10-06T08:00:00Z,26.4645,-82.1044,1.945,31.42,11111222 
SCCF RECON,ioos:station:SCCF:56:1,2019-10-06T09:00:00Z,26.4645,-82.1044,2.038,31.49,11111222 
SCCF RECON,ioos:station:SCCF:56:1,2019-10-06T10:00:00Z,26.4645,-82.1044,2.104,31.69,11111222 
SCCF RECON,ioos:station:SCCF:56:1,2019-10-06T11:00:00Z,26.4645,-82.1044,2.14,31.76,11111222 
SCCF RECON,ioos:station:SCCF:56:1,2019-10-06T12:00:00Z,26.4645,-82.1044,2.132,31.7,11111222 
SCCF RECON,ioos:station:SCCF:56:1,2019-10-06T13:00:00Z,26.4645,-82.1044,2.079,31.51,11111222 
SCCF RECON,ioos:station:SCCF:56:1,2019-10-06T14:00:00Z,26.4645,-82.1044,2.008,31.52,11111222 
SCCF RECON,ioos:station:SCCF:56:1,2019-10-06T15:00:00Z,26.4645,-82.1044,1.932,31.45,11111222 
SCCF RECON,ioos:station:SCCF:56:1,2019-10-06T16:00:00Z,26.4645,-82.1044,1.835,31.39,11111222 
SCCF RECON,ioos:station:SCCF:56:1,2019-10-06T17:00:00Z,26.4645,-82.1044,1.743,31.33,11111222 
SCCF RECON,ioos:station:SCCF:56:1,2019-10-06T18:00:00Z,26.4645,-82.1044,1.655,31.27,11111222 
SCCF RECON,ioos:station:SCCF:56:1,2019-10-06T19:00:00Z,26.4645,-82.1044,1.583,31.22,11111222 
SCCF RECON,ioos:station:SCCF:56:1,2019-10-06T20:00:00Z,26.4645,-82.1044,1.603,31.21,11111222 
SCCF RECON,ioos:station:SCCF:56:1,2019-10-06T21:00:00Z,26.4645,-82.1044,1.717,31.32,11111222 
SCCF RECON,ioos:station:SCCF:56:1,2019-10-06T22:00:00Z,26.4645,-82.1044,1.836,31.58,11111222 
SCCF RECON,ioos:station:SCCF:56:1,2019-10-06T23:00:00Z,26.4645,-82.1044,1.914,31.65,11111222 
SCCF RECON,ioos:station:SCCF:56:1,2019-10-07T04:00:00Z,26.4645,-82.1044,2.035,31.63,11111222 
SCCF RECON,ioos:station:SCCF:56:1,2019-10-07T05:00:00Z,26.4645,-82.1044,1.999,31.64,11111222 
SCCF RECON,ioos:station:SCCF:56:1,2019-10-07T06:00:00Z,26.4645,-82.1044,1.926,31.64,11111222 
SCCF RECON,ioos:station:SCCF:56:1,2019-10-07T08:00:00Z,26.4645,-82.1044,1.886,31.59,11111222 
SCCF RECON,ioos:station:SCCF:56:1,2019-10-07T09:00:00Z,26.4645,-82.1044,1.952,31.7,11111222 
SCCF RECON,ioos:station:SCCF:56:1,2019-10-07T10:00:00Z,26.4645,-82.1044,2.041,31.71,11111222 
SCCF RECON,ioos:station:SCCF:56:1,2019-10-07T11:00:00Z,26.4645,-82.1044,2.102,31.71,11111222 
SCCF RECON,ioos:station:SCCF:56:1,2019-10-07T12:00:00Z,26.4645,-82.1044,2.135,31.7,11111222 
SCCF RECON,ioos:station:SCCF:56:1,2019-10-07T13:00:00Z,26.4645,-82.1044,2.137,31.69,11111222 
SCCF RECON,ioos:station:SCCF:56:1,2019-10-07T15:00:00Z,26.4645,-82.1044,2.054,31.69,11111222 
SCCF RECON,ioos:station:SCCF:56:1,2019-10-07T16:00:00Z,26.4645,-82.1044,1.949,31.67,11111222 
SCCF RECON,ioos:station:SCCF:56:1,2019-10-07T17:00:00Z,26.4645,-82.1044,1.852,31.64,11111222 
SCCF RECON,ioos:station:SCCF:56:1,2019-10-07T18:00:00Z,26.4645,-82.1044,1.75,31.61,11111222 
SCCF RECON,ioos:station:SCCF:56:1,2019-10-07T19:00:00Z,26.4645,-82.1044,1.666,31.56,11111222 
SCCF RECON,ioos:station:SCCF:56:1,2019-10-07T20:00:00Z,26.4645,-82.1044,1.629,31.54,11111222 
SCCF RECON,ioos:station:SCCF:56:1,2019-10-07T21:00:00Z,26.4645,-82.1044,1.632,31.53,11111222 
SCCF RECON,ioos:station:SCCF:56:1,2019-10-07T22:00:00Z,26.4645,-82.1044,1.751,31.63,11111222 
SCCF RECON,ioos:station:SCCF:56:1,2019-10-07T23:00:00Z,26.4645,-82.1044,1.815,31.72,11111222 
SCCF RECON,ioos:station:SCCF:56:1,2019-10-08T04:00:00Z,26.4645,-82.1044,2.114,31.66,11111222 
SCCF RECON,ioos:station:SCCF:56:1,2019-10-08T05:00:00Z,26.4645,-82.1044,2.111,31.66,11111222 
SCCF RECON,ioos:station:SCCF:56:1,2019-10-08T06:00:00Z,26.4645,-82.1044,2.039,31.65,11111222 
SCCF RECON,ioos:station:SCCF:56:1,2019-10-08T07:00:00Z,26.4645,-82.1044,1.951,31.65,11111222 
SCCF RECON,ioos:station:SCCF:56:1,2019-10-08T08:00:00Z,26.4645,-82.1044,1.929,31.63,11111222 
SCCF RECON,ioos:station:SCCF:56:1,2019-10-08T09:00:00Z,26.4645,-82.1044,1.948,31.63,11111222 
SCCF RECON,ioos:station:SCCF:56:1,2019-10-08T10:00:00Z,26.4645,-82.1044,1.979,31.65,11111222 
SCCF RECON,ioos:station:SCCF:56:1,2019-10-08T11:00:00Z,26.4645,-82.1044,2.046,31.66,11111222 
SCCF RECON,ioos:station:SCCF:56:1,2019-10-08T12:00:00Z,26.4645,-82.1044,2.124,31.66,11111222 
SCCF RECON,ioos:station:SCCF:56:1,2019-10-08T13:00:00Z,26.4645,-82.1044,2.189,31.65,11111222 
SCCF RECON,ioos:station:SCCF:56:1,2019-10-08T14:00:00Z,26.4645,-82.1044,2.192,31.61,11111222 
SCCF RECON,ioos:station:SCCF:56:1,2019-10-08T15:00:00Z,26.4645,-82.1044,2.159,31.67,11111222 
SCCF RECON,ioos:station:SCCF:56:1,2019-10-08T16:00:00Z,26.4645,-82.1044,2.084,31.64,11111222 
SCCF RECON,ioos:station:SCCF:56:1,2019-10-08T17:00:00Z,26.4645,-82.1044,1.993,31.67,11111222 
SCCF RECON,ioos:station:SCCF:56:1,2019-10-08T18:00:00Z,26.4645,-82.1044,1.89,31.67,11111222 
SCCF RECON,ioos:station:SCCF:56:1,2019-10-08T19:00:00Z,26.4645,-82.1044,1.794,31.64,11111222 
SCCF RECON,ioos:station:SCCF:56:1,2019-10-08T20:00:00Z,26.4645,-82.1044,1.71,31.61,11111222 
SCCF RECON,ioos:station:SCCF:56:1,2019-10-08T21:00:00Z,26.4645,-82.1044,1.653,31.6,11111222 
SCCF RECON,ioos:station:SCCF:56:1,2019-10-08T22:00:00Z,26.4645,-82.1044,1.665,31.6,11111222 
SCCF RECON,ioos:station:SCCF:56:1,2019-10-08T23:00:00Z,26.4645,-82.1044,1.769,31.68,11111222 
SCCF RECON,ioos:station:SCCF:56:1,2019-10-09T04:00:00Z,26.4645,-82.1044,2.141,31.75,11111222 
SCCF RECON,ioos:station:SCCF:56:1,2019-10-09T05:00:00Z,26.4645,-82.1044,2.114,31.75,11111222 
SCCF RECON,ioos:station:SCCF:56:1,2019-10-09T06:00:00Z,26.4645,-82.1044,2.016,31.75,11111222 
SCCF RECON,ioos:station:SCCF:56:1,2019-10-09T07:00:00Z,26.4645,-82.1044,1.929,31.74,11111222 
SCCF RECON,ioos:station:SCCF:56:1,2019-10-09T08:00:00Z,26.4645,-82.1044,1.907,31.73,11111222 
SCCF RECON,ioos:station:SCCF:56:1,2019-10-09T09:00:00Z,26.4645,-82.1044,1.883,31.73,11111222 
SCCF RECON,ioos:station:SCCF:56:1,2019-10-09T10:00:00Z,26.4645,-82.1044,1.876,31.71,11111222 
SCCF RECON,ioos:station:SCCF:56:1,2019-10-09T11:00:00Z,26.4645,-82.1044,1.914,31.72,11111222 
SCCF RECON,ioos:station:SCCF:56:1,2019-10-09T12:00:00Z,26.4645,-82.1044,1.998,31.73,11111222 
SCCF RECON,ioos:station:SCCF:56:1,2019-10-09T13:00:00Z,26.4645,-82.1044,2.093,31.7,11111222 
SCCF RECON,ioos:station:SCCF:56:1,2019-10-09T14:00:00Z,26.4645,-82.1044,2.152,31.69,11111222 
SCCF RECON,ioos:station:SCCF:56:1,2019-10-09T15:00:00Z,26.4645,-82.1044,2.166,31.72,11111222 
SCCF RECON,ioos:station:SCCF:56:1,2019-10-09T16:00:00Z,26.4645,-82.1044,2.135,31.73,11111222 
SCCF RECON,ioos:station:SCCF:56:1,2019-10-09T17:00:00Z,26.4645,-82.1044,2.078,31.74,11111222 
SCCF RECON,ioos:station:SCCF:56:1,2019-10-09T18:00:00Z,26.4645,-82.1044,1.974,31.75,11111222 
SCCF RECON,ioos:station:SCCF:56:1,2019-10-09T19:00:00Z,26.4645,-82.1044,1.845,31.79,11111222 
SCCF RECON,ioos:station:SCCF:56:1,2019-10-09T20:00:00Z,26.4645,-82.1044,1.729,31.76,11111222 
SCCF RECON,ioos:station:SCCF:56:1,2019-10-09T21:00:00Z,26.4645,-82.1044,1.63,31.72,11111222 
SCCF RECON,ioos:station:SCCF:56:1,2019-10-09T22:00:00Z,26.4645,-82.1044,1.578,31.7,11111222 
SCCF RECON,ioos:station:SCCF:56:1,2019-10-09T23:00:00Z,26.4645,-82.1044,1.628,31.71,11111222 
SCCF RECON,ioos:station:SCCF:56:1,2019-10-10T04:00:00Z,26.4645,-82.1044,2.02,31.86,11111222 
SCCF RECON,ioos:station:SCCF:56:1,2019-10-10T05:00:00Z,26.4645,-82.1044,2.03,31.88,11111222 
SCCF RECON,ioos:station:SCCF:56:1,2019-10-10T06:00:00Z,26.4645,-82.1044,2.018,31.85,11111222 
SCCF RECON,ioos:station:SCCF:56:1,2019-10-10T07:00:00Z,26.4645,-82.1044,1.919,31.85,11111222 
SCCF RECON,ioos:station:SCCF:56:1,2019-10-10T08:00:00Z,26.4645,-82.1044,1.836,31.83,11111222 
SCCF RECON,ioos:station:SCCF:56:1,2019-10-10T09:00:00Z,26.4645,-82.1044,1.758,31.82,11111222 
SCCF RECON,ioos:station:SCCF:56:1,2019-10-10T10:00:00Z,26.4645,-82.1044,1.724,31.8,11111222 
SCCF RECON,ioos:station:SCCF:56:1,2019-10-10T11:00:00Z,26.4645,-82.1044,1.745,31.79,11111222 
SCCF RECON,ioos:station:SCCF:56:1,2019-10-10T12:00:00Z,26.4645,-82.1044,1.881,31.92,11111222 
SCCF RECON,ioos:station:SCCF:56:1,2019-10-10T13:00:00Z,26.4645,-82.1044,2.006,31.91,11111222 
SCCF RECON,ioos:station:SCCF:56:1,2019-10-10T14:00:00Z,26.4645,-82.1044,2.092,31.9,11111222 
SCCF RECON,ioos:station:SCCF:56:1,2019-10-10T15:00:00Z,26.4645,-82.1044,2.151,31.87,11111222 
SCCF RECON,ioos:station:SCCF:56:1,2019-10-10T16:00:00Z,26.4645,-82.1044,2.158,31.82,11111222 
SCCF RECON,ioos:station:SCCF:56:1,2019-10-10T17:00:00Z,26.4645,-82.1044,2.108,31.85,11111222 
SCCF RECON,ioos:station:SCCF:56:1,2019-10-10T18:00:00Z,26.4645,-82.1044,2.002,31.86,11111222 
SCCF RECON,ioos:station:SCCF:56:1,2019-10-10T19:00:00Z,26.4645,-82.1044,1.898,31.87,11111222 
SCCF RECON,ioos:station:SCCF:56:1,2019-10-10T20:00:00Z,26.4645,-82.1044,1.782,31.86,11111222 
SCCF RECON,ioos:station:SCCF:56:1,2019-10-10T21:00:00Z,26.4645,-82.1044,1.703,31.85,11111222 
SCCF RECON,ioos:station:SCCF:56:1,2019-10-10T22:00:00Z,26.4645,-82.1044,1.617,31.81,11111222 
SCCF RECON,ioos:station:SCCF:56:1,2019-10-10T23:00:00Z,26.4645,-82.1044,1.601,31.83,11111222 
SCCF RECON,ioos:station:SCCF:56:1,2019-10-11T04:00:00Z,26.4645,-82.1044,2.091,32.03,11111222 
SCCF RECON,ioos:station:SCCF:56:1,2019-10-11T05:00:00Z,26.4645,-82.1044,2.102,31.99,11111222 
SCCF RECON,ioos:station:SCCF:56:1,2019-10-11T06:00:00Z,26.4645,-82.1044,2.043,31.99,11111222 
SCCF RECON,ioos:station:SCCF:56:1,2019-10-11T07:00:00Z,26.4645,-82.1044,1.915,32.02,11111222 
SCCF RECON,ioos:station:SCCF:56:1,2019-10-11T08:00:00Z,26.4645,-82.1044,1.818,32.0,11111222 
SCCF RECON,ioos:station:SCCF:56:1,2019-10-11T09:00:00Z,26.4645,-82.1044,1.762,32.0,11111222 
SCCF RECON,ioos:station:SCCF:56:1,2019-10-11T10:00:00Z,26.4645,-82.1044,1.693,31.98,11111222 
SCCF RECON,ioos:station:SCCF:56:1,2019-10-11T11:00:00Z,26.4645,-82.1044,1.658,31.97,11111222 
SCCF RECON,ioos:station:SCCF:56:1,2019-10-11T12:00:00Z,26.4645,-82.1044,1.742,32.01,11111222 
SCCF RECON,ioos:station:SCCF:56:1,2019-10-11T13:00:00Z,26.4645,-82.1044,1.899,32.02,11111222 
SCCF RECON,ioos:station:SCCF:56:1,2019-10-11T14:00:00Z,26.4645,-82.1044,2.022,32.02,11111222 
SCCF RECON,ioos:station:SCCF:56:1,2019-10-11T15:00:00Z,26.4645,-82.1044,2.096,31.97,11111222 
SCCF RECON,ioos:station:SCCF:56:1,2019-10-11T16:00:00Z,26.4645,-82.1044,2.143,31.99,11111222 
SCCF RECON,ioos:station:SCCF:56:1,2019-10-11T17:00:00Z,26.4645,-82.1044,2.146,31.99,11111222 
SCCF RECON,ioos:station:SCCF:56:1,2019-10-11T18:00:00Z,26.4645,-82.1044,2.093,32.0,11111222 
SCCF RECON,ioos:station:SCCF:56:1,2019-10-11T19:00:00Z,26.4645,-82.1044,1.979,32.0,11111222 
SCCF RECON,ioos:station:SCCF:56:1,2019-10-11T20:00:00Z,26.4645,-82.1044,1.859,31.99,11111222 
SCCF RECON,ioos:station:SCCF:56:1,2019-10-11T21:00:00Z,26.4645,-82.1044,1.75,32.04,11111222 
SCCF RECON,ioos:station:SCCF:56:1,2019-10-11T22:00:00Z,26.4645,-82.1044,1.669,32.04,11111222 
SCCF RECON,ioos:station:SCCF:56:1,2019-10-11T23:00:00Z,26.4645,-82.1044,1.641,32.04,11111222 
SCCF RECON,ioos:station:SCCF:56:1,2019-10-12T04:00:00Z,26.4645,-82.1044,2.117,32.06,11111222 
SCCF RECON,ioos:station:SCCF:56:1,2019-10-12T05:00:00Z,26.4645,-82.1044,2.139,32.03,11111222 
SCCF RECON,ioos:station:SCCF:56:1,2019-10-12T06:00:00Z,26.4645,-82.1044,2.089,32.05,11111222 
SCCF RECON,ioos:station:SCCF:56:1,2019-10-12T07:00:00Z,26.4645,-82.1044,1.952,32.09,11111222 
SCCF RECON,ioos:station:SCCF:56:1,2019-10-12T08:00:00Z,26.4645,-82.1044,1.834,32.09,11111222 
SCCF RECON,ioos:station:SCCF:56:1,2019-10-12T09:00:00Z,26.4645,-82.1044,1.732,32.13,11111222 
SCCF RECON,ioos:station:SCCF:56:1,2019-10-12T10:00:00Z,26.4645,-82.1044,1.66,32.13,11111222 
SCCF RECON,ioos:station:SCCF:56:1,2019-10-12T11:00:00Z,26.4645,-82.1044,1.612,32.14,11111222 
SCCF RECON,ioos:station:SCCF:56:1,2019-10-12T12:00:00Z,26.4645,-82.1044,1.632,32.14,11111222 
SCCF RECON,ioos:station:SCCF:56:1,2019-10-12T13:00:00Z,26.4645,-82.1044,1.78,32.14,11111222 
SCCF RECON,ioos:station:SCCF:56:1,2019-10-12T14:00:00Z,26.4645,-82.1044,1.957,32.09,11111222 
SCCF RECON,ioos:station:SCCF:56:1,2019-10-12T15:00:00Z,26.4645,-82.1044,2.078,32.04,11111222 
SCCF RECON,ioos:station:SCCF:56:1,2019-10-12T16:00:00Z,26.4645,-82.1044,2.159,32.0,11111222 
SCCF RECON,ioos:station:SCCF:56:1,2019-10-12T17:00:00Z,26.4645,-82.1044,2.191,31.97,11111222 
SCCF RECON,ioos:station:SCCF:56:1,2019-10-12T18:00:00Z,26.4645,-82.1044,2.152,32.07,11111222 
SCCF RECON,ioos:station:SCCF:56:1,2019-10-12T19:00:00Z,26.4645,-82.1044,2.047,32.03,11111222 
SCCF RECON,ioos:station:SCCF:56:1,2019-10-12T20:00:00Z,26.4645,-82.1044,1.928,32.07,11111222 
SCCF RECON,ioos:station:SCCF:56:1,2019-10-12T21:00:00Z,26.4645,-82.1044,1.82,32.12,11111222 
SCCF RECON,ioos:station:SCCF:56:1,2019-10-12T22:00:00Z,26.4645,-82.1044,1.744,32.13,11111222 
SCCF RECON,ioos:station:SCCF:56:1,2019-10-12T23:00:00Z,26.4645,-82.1044,1.67,32.16,11111222 
SCCF RECON,ioos:station:SCCF:56:1,2019-10-13T04:00:00Z,26.4645,-82.1044,2.093,31.98,11111222 
SCCF RECON,ioos:station:SCCF:56:1,2019-10-13T05:00:00Z,26.4645,-82.1044,2.153,31.93,11111222 
SCCF RECON,ioos:station:SCCF:56:1,2019-10-13T06:00:00Z,26.4645,-82.1044,2.128,32.1,11111222 
SCCF RECON,ioos:station:SCCF:56:1,2019-10-13T07:00:00Z,26.4645,-82.1044,2.024,32.01,11111222 
SCCF RECON,ioos:station:SCCF:56:1,2019-10-13T08:00:00Z,26.4645,-82.1044,1.891,32.1,11111222 
SCCF RECON,ioos:station:SCCF:56:1,2019-10-13T09:00:00Z,26.4645,-82.1044,1.753,32.16,11111222 
SCCF RECON,ioos:station:SCCF:56:1,2019-10-13T10:00:00Z,26.4645,-82.1044,1.648,32.21,11111222 
SCCF RECON,ioos:station:SCCF:56:1,2019-10-13T11:00:00Z,26.4645,-82.1044,1.572,32.25,11111222 
SCCF RECON,ioos:station:SCCF:56:1,2019-10-13T12:00:00Z,26.4645,-82.1044,1.564,32.27,11111222 
SCCF RECON,ioos:station:SCCF:56:1,2019-10-13T13:00:00Z,26.4645,-82.1044,1.681,32.24,11111222 
SCCF RECON,ioos:station:SCCF:56:1,2019-10-13T14:00:00Z,26.4645,-82.1044,1.866,32.18,11111222 
SCCF RECON,ioos:station:SCCF:56:1,2019-10-13T15:00:00Z,26.4645,-82.1044,2.016,32.02,11111222 
SCCF RECON,ioos:station:SCCF:56:1,2019-10-13T16:00:00Z,26.4645,-82.1044,2.136,31.93,11111222 
SCCF RECON,ioos:station:SCCF:56:1,2019-10-13T17:00:00Z,26.4645,-82.1044,2.207,31.89,11111222 
SCCF RECON,ioos:station:SCCF:56:1,2019-10-13T18:00:00Z,26.4645,-82.1044,2.214,31.85,11111222 
SCCF RECON,ioos:station:SCCF:56:1,2019-10-13T19:00:00Z,26.4645,-82.1044,2.162,31.99,11111222 